Wind_Speed
21 23 23 21 22 23 24 25 24 23 22 21 21 21 21 21 21 21 21 21 21 20 20 20 19 19 19 19 18 18 17 17 17 16 16 15 15 14 14 14 13 13 13 13 13 13 12 12 12 12 12 12 12 12 12 11 11 11 10 11 12 13 13 14 14 14 15 15 14 13 12 12 12 12 12 11 12 13 14 14 16 17 17 16 16
25 26 24 23 22 23 24 23 24 23 22 22 21 21 20 20 20 20 20 19 20 20 19 20 19 19 18 18 18 17 17 16 16 15 15 14 14 13 13 13 13 13 12 13 12 12 12 12 13 13 13 12 12 12 12 12 11 11 12 13 14 14 15 15 15 15 15 14 13 12 11 12 12 11 11 11 13 13 13 15 16 17 16 15 15
27 25 25 23 23 24 23 22 22 21 21 21 21 21 20 20 20 19 19 19 19 19 19 19 18 18 18 17 17 16 16 15 15 15 14 13 13 13 13 12 12 12 12 12 12 12 12 12 13 13 13 12 12 12 12 12 12 13 13 14 15 15 15 15 15 14 13 14 13 12 11 11 11 11 11 12 13 13 14 15 16 16 15 14 14
27 26 26 24 23 23 22 22 21 20 20 20 20 20 20 20 20 19 19 19 18 18 18 18 18 17 17 17 16 16 15 15 14 14 13 12 12 12 12 12 11 11 12 12 12 11 11 12 12 12 12 12 12 12 13 13 13 14 14 15 15 15 15 14 14 13 12 13 13 12 12 11 11 10 10 12 13 14 15 15 15 15 14 14 14
29 27 27 26 23 23 22 21 21 20 19 19 19 19 20 20 20 19 19 19 18 18 17 17 17 17 16 16 16 15 15 14 14 13 12 12 11 11 11 11 11 11 11 11 11 11 11 11 12 12 12 12 12 12 12 13 14 13 14 15 14 14 14 14 13 13 13 14 14 13 13 13 12 11 11 12 13 13 13 14 14 14 14 14 14
29 28 29 27 24 23 22 22 22 20 19 19 19 19 19 19 19 19 19 19 18 18 17 16 16 16 16 16 15 14 14 14 13 13 12 11 11 11 10 11 11 11 11 11 11 11 11 11 11 12 12 12 12 12 12 13 14 13 13 14 14 14 14 13 13 13 13 14 14 14 14 14 13 11 11 13 13 13 13 13 14 13 14 15 16
29 30 29 28 26 23 23 22 22 20 19 19 19 19 19 19 19 18 18 18 18 17 16 16 16 16 15 15 14 14 14 14 13 13 12 11 11 11 10 10 10 11 11 11 11 11 11 11 11 12 12 12 12 12 12 12 12 12 12 13 13 13 14 13 13 13 14 14 15 14 14 14 13 11 11 13 14 13 13 13 13 14 15 17 17
30 31 29 29 26 24 23 23 22 21 20 20 20 19 19 18 18 18 18 17 17 16 16 15 15 15 14 14 13 13 13 13 12 12 12 11 11 11 10 10 10 11 11 11 11 11 11 11 11 12 13 12 12 12 12 12 11 11 12 12 13 13 13 13 13 14 14 14 14 15 14 14 13 12 12 12 14 13 13 12 13 15 16 16 16
30 30 30 29 27 25 23 23 22 21 20 20 20 19 19 18 18 17 17 17 17 16 15 15 14 14 13 13 12 12 12 12 11 11 11 11 11 11 10 10 10 10 11 11 11 10 10 11 11 12 13 12 12 12 12 11 11 11 11 12 12 13 13 13 13 14 14 14 14 14 14 14 14 13 11 12 14 14 13 12 13 16 16 16 16
30 30 30 29 28 26 23 23 22 21 21 20 20 19 19 18 17 17 17 17 16 15 15 14 14 13 13 12 12 12 11 11 11 11 11 10 11 11 10 10 10 10 11 11 11 11 11 11 11 12 12 12 12 11 11 11 11 11 11 11 12 12 12 13 14 15 14 14 14 14 14 13 13 12 11 12 14 14 14 13 14 17 17 16 15
30 30 30 29 28 25 24 23 22 21 21 20 20 19 19 18 17 16 16 16 15 15 14 14 14 13 13 12 11 11 11 10 10 11 11 11 11 11 11 11 10 10 12 12 11 11 11 10 10 12 12 12 11 11 11 11 11 12 12 11 12 13 13 14 15 15 14 14 13 13 12 12 12 11 12 12 12 13 13 13 14 16 17 16 13
29 30 30 29 27 25 24 23 22 21 21 21 20 19 18 17 17 16 16 15 15 14 14 14 13 13 13 12 11 11 11 10 10 11 11 11 11 12 11 11 11 11 12 12 12 11 11 10 10 11 12 11 10 11 11 11 11 11 11 11 12 13 12 13 14 15 14 13 13 12 12 12 11 10 11 12 12 13 12 13 15 16 17 17 14
30 30 30 29 26 25 23 23 22 21 21 21 20 19 18 18 16 16 15 15 15 14 14 14 13 13 12 12 12 11 11 10 10 11 11 11 11 11 11 11 11 11 11 12 12 11 10 10 10 10 11 11 10 10 10 10 10 10 11 11 11 12 11 12 13 14 13 13 13 13 12 13 11 9 9 11 13 13 13 13 15 16 17 17 14
30 30 30 29 26 24 23 23 22 21 21 20 20 19 18 17 16 16 15 14 14 14 14 13 13 13 12 12 12 12 11 11 10 10 10 10 10 11 11 11 11 11 11 11 11 11 11 10 10 10 11 11 10 9 9 9 9 10 11 11 10 10 11 11 13 13 14 14 14 14 13 13 12 11 9 9 11 12 13 15 15 16 17 16 14
31 30 30 29 26 24 22 22 22 21 21 20 20 18 18 17 16 16 14 14 14 14 13 13 13 12 12 12 12 12 11 11 10 10 10 11 10 10 11 11 11 11 12 12 11 11 11 11 11 10 10 10 10 9 8 9 10 10 10 10 9 9 10 10 12 13 14 14 14 15 14 13 12 12 11 8 8 9 11 13 15 16 16 14 14
31 30 30 28 26 24 23 22 21 21 21 20 19 18 18 16 16 15 14 14 13 13 13 13 13 12 12 12 12 12 11 11 10 11 11 11 11 11 11 11 11 11 11 12 11 11 11 11 11 10 10 10 9 8 8 9 9 10 10 9 9 8 9 10 11 12 13 14 14 14 14 12 11 11 11 10 9 8 8 10 12 13 13 13 13
30 30 29 28 26 25 23 23 21 21 21 20 19 18 17 16 16 15 14 14 13 13 13 13 13 12 12 12 12 12 11 11 11 11 11 11 11 11 11 11 11 11 11 12 11 11 11 11 11 10 9 9 9 8 8 8 9 10 10 9 8 8 8 10 11 12 12 13 13 13 13 12 11 10 11 12 12 10 9 9 10 10 11 12 11
29 29 29 27 26 25 24 23 22 21 21 19 19 18 17 16 16 15 14 14 13 13 12 13 13 13 13 12 12 11 11 11 11 11 10 11 11 11 11 11 11 11 10 11 11 11 11 11 10 10 9 9 9 8 7 7 8 9 9 9 8 8 8 9 10 11 11 11 11 12 13 11 11 11 10 11 11 11 11 11 11 10 11 11 11
29 28 27 27 27 25 24 24 23 22 21 20 19 18 17 16 15 15 15 14 14 13 12 12 12 13 12 12 12 11 11 10 10 10 10 10 10 11 10 10 10 10 10 10 11 10 11 10 10 10 9 9 9 8 7 7 8 8 8 9 8 7 8 8 9 10 10 11 11 11 12 11 10 10 10 10 10 11 11 10 10 11 11 11 11
27 27 26 26 26 25 25 25 24 23 22 21 20 18 17 16 15 15 14 14 14 13 12 12 12 12 12 12 11 11 11 10 9 9 10 10 10 11 10 10 10 9 9 10 11 10 10 10 10 9 9 9 8 8 7 7 7 8 8 8 7 7 8 8 8 8 9 10 10 10 11 10 10 9 9 10 10 10 10 10 10 10 10 11 11
26 27 26 26 26 26 27 26 25 24 23 22 21 19 17 16 15 14 14 14 13 13 13 12 12 11 11 11 11 12 11 10 9 8 9 9 10 10 10 10 10 10 9 9 10 10 10 10 10 9 9 8 8 8 8 7 7 7 7 7 7 6 7 7 7 8 8 9 10 9 10 10 9 9 9 9 9 9 10 9 9 9 9 9 10
27 27 26 27 26 26 27 27 26 25 24 22 21 20 18 17 16 15 15 14 13 13 13 13 12 12 11 11 12 12 11 10 9 8 8 9 9 9 9 9 9 9 8 8 8 8 8 8 8 8 8 7 7 8 8 7 6 7 6 6 5 6 6 6 6 7 8 9 9 10 9 9 9 8 8 9 9 9 9 9 9 8 8 8 9
28 28 27 27 27 27 28 28 28 26 25 23 23 21 19 18 17 16 16 15 14 14 14 14 14 13 12 12 12 12 11 10 9 8 8 8 8 8 9 8 8 8 7 7 7 7 7 7 7 7 7 7 6 7 8 8 7 6 5 4 4 5 5 5 5 6 7 8 10 10 9 9 8 8 8 8 8 8 9 9 8 8 7 7 8
29 29 28 27 27 28 28 29 29 28 26 25 24 22 21 19 18 17 17 17 16 15 15 15 14 14 13 12 12 11 11 10 9 8 8 9 8 8 8 8 8 7 6 7 7 6 6 7 6 6 6 6 6 6 7 7 7 6 5 3 4 4 4 4 4 5 6 7 9 10 9 9 8 8 7 8 8 7 8 9 8 8 7 7 6
28 28 28 28 28 29 29 29 30 29 28 26 25 24 22 21 19 19 18 18 17 16 16 15 15 14 13 12 11 11 10 9 9 7 7 8 9 9 9 9 9 8 7 6 6 6 6 6 6 6 6 6 6 6 6 6 6 5 5 4 4 4 4 4 4 4 5 6 8 9 9 8 8 7 7 7 7 7 7 8 8 8 7 7 6
27 27 28 29 29 30 30 30 30 31 29 28 27 25 24 22 21 20 20 19 17 17 16 15 16 14 12 12 12 10 9 9 8 7 7 7 8 9 9 10 10 8 7 6 5 5 5 5 5 5 6 6 5 5 5 6 6 5 5 5 4 4 4 4 4 5 5 5 8 8 8 9 8 8 7 6 6 6 6 7 7 7 7 7 6
28 27 29 29 30 31 30 30 31 31 30 29 28 27 25 24 23 21 20 19 18 17 17 16 16 14 12 12 12 10 10 10 10 8 7 6 7 8 8 9 8 7 6 5 4 4 4 4 4 5 5 5 5 5 5 5 5 5 5 5 5 5 5 5 4 5 5 6 8 8 9 9 8 8 7 6 6 5 6 6 6 6 6 7 7
28 28 29 29 31 32 31 31 31 32 32 30 29 28 27 25 23 22 20 20 19 19 18 17 16 15 13 12 11 10 11 11 11 9 7 6 5 7 8 7 7 6 4 4 4 4 4 4 3 4 5 5 5 5 5 4 4 3 3 4 6 7 7 7 5 5 6 6 8 9 9 9 9 8 7 7 6 5 5 5 5 5 6 6 7
29 29 29 30 32 32 32 32 32 32 33 32 30 29 28 26 25 23 21 20 20 19 18 17 16 15 14 13 12 12 12 12 10 9 7 6 5 7 7 7 6 5 4 3 4 4 4 4 3 3 3 4 5 5 4 4 3 2 2 4 6 9 9 9 7 6 6 7 9 9 9 9 9 8 8 7 6 6 6 5 5 5 5 5 6
31 30 30 31 32 33 33 33 33 33 33 33 32 31 29 27 26 24 22 21 21 20 18 18 16 15 15 14 13 13 13 12 10 8 8 6 5 6 6 6 5 5 4 3 4 5 5 5 4 3 3 4 5 4 4 3 3 2 3 3 5 8 10 9 8 7 6 7 9 9 9 9 9 8 8 7 7 6 6 6 5 5 5 5 5
31 31 31 31 32 33 34 34 33 33 33 33 33 32 30 29 27 25 23 22 21 20 19 18 16 15 15 14 14 14 14 12 10 8 8 7 6 6 6 6 5 4 4 4 5 5 5 5 5 4 4 5 4 4 4 4 4 2 2 1 2 6 8 9 9 8 7 7 8 10 10 9 9 9 9 8 7 7 6 6 6 6 6 5 5
32 33 32 32 33 34 34 34 34 33 34 34 34 33 31 29 28 26 25 22 21 20 19 17 16 15 15 15 15 15 14 13 11 9 8 8 7 7 7 7 6 5 5 5 5 5 5 5 5 4 4 4 4 3 4 5 4 2 1 2 3 5 8 9 9 8 7 7 8 10 10 10 10 9 9 8 7 7 6 6 6 6 6 6 5
32 33 32 32 33 34 35 35 34 34 34 35 34 33 31 30 28 27 25 22 21 20 19 17 16 15 15 15 15 15 15 14 12 10 9 9 8 8 8 7 6 5 5 5 5 5 5 5 5 4 4 3 3 3 4 5 4 1 1 2 4 5 7 9 9 9 7 8 9 9 10 11 10 9 9 8 8 8 7 6 6 6 6 6 6
31 32 32 33 34 34 34 34 34 34 35 35 34 34 32 30 29 28 26 23 21 21 19 18 17 15 15 16 15 15 15 14 12 11 10 10 9 9 8 7 6 6 6 6 6 6 5 4 4 4 4 2 2 3 4 4 2 1 1 3 3 4 7 9 9 9 8 8 8 8 9 10 11 10 10 9 9 8 8 7 6 6 6 6 7
32 33 34 34 34 34 34 34 35 35 35 35 35 35 33 31 30 29 26 23 22 21 20 19 18 17 16 16 16 15 14 13 13 12 11 11 11 10 9 8 7 6 6 6 7 6 5 4 4 4 3 2 2 3 4 3 2 1 1 1 2 3 6 9 10 9 8 7 7 7 8 9 10 11 10 10 9 9 9 8 7 6 6 6 6
33 34 34 34 34 34 34 34 35 36 35 35 35 35 34 32 31 29 26 24 23 22 20 19 18 18 17 17 17 15 14 13 13 13 12 12 12 10 9 9 8 7 7 6 7 7 5 4 4 4 3 2 2 4 3 4 4 2 1 2 4 4 6 9 10 9 8 7 6 7 8 8 9 9 10 10 10 9 9 8 7 7 6 6 7
35 35 35 35 35 35 35 34 35 36 36 35 34 33 33 32 32 30 27 25 25 23 21 20 19 19 18 18 18 17 15 13 13 13 13 12 12 11 9 9 8 8 8 7 7 7 6 5 5 5 3 2 2 3 3 3 4 2 1 4 7 7 8 10 10 8 7 7 7 7 6 6 7 8 9 9 9 10 9 9 8 7 7 7 7
35 36 36 36 36 35 35 35 34 36 36 35 34 32 31 31 32 30 27 26 26 24 22 21 21 20 19 19 19 18 16 15 14 14 14 13 12 12 11 10 9 9 8 7 6 7 6 6 6 5 4 3 2 1 3 4 4 3 2 5 8 9 10 11 9 7 7 7 7 7 6 5 6 6 6 7 8 9 9 9 9 8 8 8 8
35 36 36 36 35 34 34 34 34 35 35 34 33 31 30 29 30 30 29 28 27 25 24 22 22 21 20 20 19 19 18 16 15 15 15 14 13 13 12 11 10 10 9 8 7 7 7 7 6 6 5 4 1 1 3 4 5 4 4 7 9 11 11 10 8 7 7 7 7 6 6 6 5 5 5 6 7 8 8 9 9 9 9 9 8
35 35 36 36 36 34 33 34 33 34 34 33 32 30 29 29 30 31 30 30 29 28 26 24 23 22 21 20 20 19 19 18 17 16 16 15 14 13 12 12 12 11 10 9 8 8 7 8 7 7 6 5 2 0 2 5 6 6 7 10 12 12 12 10 8 8 7 7 6 6 6 6 6 5 4 5 7 7 7 8 9 9 9 9 9
34 36 36 37 37 36 34 35 34 34 35 34 33 32 31 31 30 32 32 31 31 30 28 26 24 22 21 21 20 20 20 20 19 18 17 16 15 14 13 13 13 12 11 10 9 8 8 8 8 7 7 5 3 0 2 7 9 8 7 9 11 11 12 10 9 9 8 7 6 6 6 6 6 5 4 4 5 6 6 8 8 9 9 10 10
34 37 38 38 38 37 37 36 35 35 36 37 35 35 34 33 32 33 33 32 31 31 30 28 26 23 22 22 21 20 21 21 21 20 19 18 17 16 14 14 13 13 12 10 9 8 9 9 8 8 8 7 4 2 5 9 9 9 9 7 4 6 9 10 11 10 9 9 8 7 7 6 6 5 5 5 5 5 5 7 7 8 9 9 10
36 37 38 39 38 37 37 36 36 37 38 38 37 36 36 35 33 32 32 30 30 31 30 27 26 24 23 23 23 22 22 22 22 22 21 20 19 18 16 15 14 13 12 11 10 10 10 10 9 9 8 8 6 5 8 8 8 12 11 5 2 2 3 8 11 12 12 11 10 9 8 7 6 5 6 5 5 5 5 6 7 7 8 8 9
36 37 38 38 38 38 38 37 38 38 38 39 38 36 34 33 31 29 29 28 28 29 28 27 26 26 25 25 25 24 23 22 22 22 23 22 21 20 18 16 14 14 13 12 11 10 10 11 10 10 9 10 7 7 11 9 8 12 9 3 1 2 1 6 10 12 13 13 12 11 10 9 8 7 6 5 5 5 5 6 6 7 7 7 8
36 38 39 39 38 39 40 39 39 38 39 39 38 35 31 30 29 26 25 24 24 25 26 26 27 27 27 27 27 26 24 23 21 21 23 23 21 20 19 17 15 14 14 13 12 10 10 11 11 10 10 10 7 7 12 10 9 12 9 4 2 1 2 4 6 7 12 16 15 14 12 11 10 8 7 6 6 5 5 6 6 6 7 7 7
38 39 41 41 40 40 40 40 39 39 39 39 38 36 32 31 30 27 26 25 23 24 28 29 30 30 30 28 27 27 27 25 22 21 21 22 21 21 20 19 17 16 15 13 12 11 11 11 11 11 11 10 8 7 10 10 9 11 10 6 3 2 4 6 4 1 7 14 16 16 15 13 12 11 9 7 7 7 6 6 7 7 7 7 7
39 40 40 41 41 40 40 41 40 39 38 38 38 37 34 33 33 32 32 30 28 29 32 33 32 32 31 29 27 28 28 27 24 23 21 21 21 21 21 20 18 17 16 15 14 13 12 11 10 11 11 11 10 9 10 10 11 11 9 7 3 2 7 9 5 3 2 6 12 16 17 16 15 13 12 10 9 8 8 8 8 8 7 7 7
39 39 39 40 41 40 40 41 40 39 39 38 39 38 37 35 35 35 33 33 33 33 34 33 32 31 31 30 28 28 28 28 27 25 23 21 20 21 22 22 21 19 18 17 15 13 12 12 11 12 13 13 12 11 11 11 12 12 10 10 6 3 7 10 9 8 5 1 5 10 14 17 17 16 15 13 12 10 9 9 9 8 9 9 8
39 40 41 41 41 41 40 41 40 39 39 39 39 40 39 37 36 35 33 33 33 32 31 30 30 30 29 29 28 27 28 28 28 27 24 22 21 21 22 23 23 21 20 18 16 14 13 13 13 14 14 14 13 12 12 12 12 13 12 11 8 4 5 8 10 10 6 3 2 4 10 13 15 19 19 16 15 13 11 10 10 10 10 10 9
38 40 41 40 40 40 40 40 40 39 39 40 41 41 40 38 36 35 33 32 31 29 27 28 29 28 28 27 26 27 27 28 29 28 27 24 22 21 22 24 24 23 22 19 18 16 14 14 13 14 15 16 15 14 13 13 13 14 14 13 10 7 5 6 8 9 6 4 3 4 11 13 13 18 22 20 19 16 15 13 12 12 12 11 11
37 38 39 39 40 40 40 41 42 41 39 40 41 42 41 39 37 36 35 33 31 29 27 27 28 28 28 28 27 27 27 28 29 29 29 26 24 22 21 23 24 24 23 21 19 17 15 14 14 14 16 17 17 16 15 13 13 14 15 15 14 11 9 7 9 12 9 6 4 4 11 16 15 18 20 21 22 19 17 17 15 14 13 13 12
Wind_Direction
151 141 140 139 136 136 133 133 129 128 125 124 122 121 121 120 120 120 121 121 123 124 125 125 126 127 127 127 127 126 125 125 124 124 123 123 121 119 117 117 117 117 116 113 112 110 108 105 102 100 99 98 97 97 99 102 104 105 109 111 107 106 107 104 102 100 97 93 94 96 98 102 106 105 104 107 107 106 109 111 110 106 101 101 100
146 139 138 138 139 137 134 133 130 130 127 126 124 123 121 120 120 119 121 122 124 124 124 125 125 125 124 124 124 124 124 124 123 122 122 121 120 119 120 119 119 118 116 114 113 112 109 106 102 100 98 98 97 96 95 97 100 102 104 104 104 103 102 100 98 96 96 97 97 98 98 97 101 103 103 105 105 105 109 111 110 106 103 104 104
142 139 137 139 142 138 135 133 131 131 129 128 126 125 123 122 123 122 123 123 123 123 124 124 123 123 122 123 122 122 122 122 121 120 119 119 120 120 120 119 120 119 118 116 114 112 109 106 102 100 100 99 99 97 95 96 98 99 99 99 99 100 98 98 99 97 98 102 103 103 100 96 98 102 103 102 104 107 110 109 106 105 104 103 102
142 140 139 141 144 139 136 134 133 133 130 128 126 125 125 126 126 126 125 124 123 123 123 122 122 122 123 123 121 120 120 120 118 118 118 118 120 119 120 122 122 120 118 117 114 111 108 106 103 100 100 101 101 99 98 98 99 99 100 100 99 99 98 100 101 98 98 103 106 104 100 99 101 104 105 102 104 107 108 108 106 106 106 104 100
145 143 141 142 145 142 138 137 135 135 132 129 128 127 128 129 128 127 126 124 124 124 123 123 123 123 123 121 119 119 119 119 118 118 118 119 121 121 123 123 121 120 119 116 115 114 109 106 105 103 102 103 103 101 100 99 100 102 103 102 102 101 98 98 99 99 103 109 110 104 98 98 100 104 105 104 107 108 108 109 108 108 107 103 99
149 146 143 144 148 145 140 139 138 138 135 132 130 130 131 130 129 128 127 126 125 125 124 125 125 123 121 119 118 119 119 117 117 118 119 121 122 123 123 123 122 122 122 120 118 116 110 107 108 106 103 104 105 104 103 101 101 104 105 105 104 101 100 99 98 102 108 113 111 105 99 97 98 104 106 106 110 110 109 110 109 106 105 104 104
149 146 144 146 150 148 144 141 141 141 137 135 134 134 133 131 130 129 128 126 126 126 125 124 124 123 120 120 120 119 119 118 119 120 120 122 121 120 120 122 122 123 123 122 120 116 111 109 109 109 107 105 106 107 107 105 105 105 106 107 105 103 104 103 105 108 111 112 109 106 101 96 95 100 107 109 112 113 113 113 109 106 106 108 110
149 147 146 148 151 151 146 143 144 143 139 138 137 136 136 134 133 131 129 128 128 127 125 124 124 123 121 121 120 120 121 122 123 123 123 122 118 115 116 119 123 124 123 120 118 116 114 112 111 111 110 107 108 111 112 110 108 107 105 104 104 104 106 107 111 113 112 111 108 107 102 98 96 99 109 114 115 117 118 114 107 107 108 110 109
151 149 148 150 152 153 149 146 146 144 141 141 140 139 138 137 135 133 131 130 129 128 127 126 124 123 122 121 120 121 122 123 123 124 123 119 113 112 114 117 121 122 121 121 121 119 115 113 112 111 109 109 113 115 115 112 109 109 106 104 104 106 109 111 115 115 113 111 109 106 103 100 98 99 109 119 120 120 120 115 111 112 112 111 106
152 150 150 151 153 155 150 148 148 145 144 143 141 141 140 139 136 134 132 131 130 129 128 127 126 123 122 122 121 122 122 123 124 123 121 117 115 114 115 115 118 121 121 123 124 121 114 113 114 113 112 112 115 114 112 111 110 111 111 108 106 109 114 116 117 117 115 114 111 106 104 104 102 106 114 120 120 120 121 119 117 118 117 112 106
152 151 151 152 154 155 152 150 150 147 145 145 143 143 142 140 137 136 133 131 131 130 129 128 126 124 124 122 122 123 123 124 122 122 122 120 118 116 115 116 118 119 120 121 122 119 114 114 114 115 114 114 115 113 111 110 110 112 113 113 111 112 117 120 119 118 118 118 115 108 107 106 106 114 120 122 121 120 124 125 124 123 120 114 113
152 152 151 152 155 156 154 152 151 148 147 147 145 145 143 141 140 138 136 134 132 131 130 129 127 126 126 124 124 125 123 123 120 121 122 120 119 117 117 116 116 115 116 118 116 113 112 114 114 115 117 116 115 112 110 106 105 107 108 113 115 116 119 121 118 117 118 119 116 113 112 108 110 122 127 129 127 123 126 128 127 126 122 118 119
153 153 152 152 156 157 155 154 153 150 150 149 147 147 145 144 143 140 138 137 134 133 131 129 128 127 127 128 129 127 124 123 122 121 121 120 119 117 116 113 112 113 112 112 112 112 112 113 112 114 116 117 115 110 108 104 101 101 102 109 115 119 120 119 116 114 115 118 118 117 115 109 113 124 126 128 127 126 128 128 128 126 120 117 119
155 154 153 154 157 158 156 156 155 153 152 151 149 149 147 146 144 142 140 138 136 134 133 132 131 130 131 131 130 127 125 126 125 123 122 122 119 116 115 113 111 110 108 107 108 111 111 110 109 110 114 118 116 109 107 104 103 102 103 108 115 123 124 121 116 115 116 118 118 116 114 112 116 119 115 118 123 126 125 126 130 128 122 121 123
157 155 154 155 157 158 157 158 157 156 155 153 152 151 149 148 146 144 140 139 138 137 136 135 134 134 134 132 130 128 128 129 127 127 125 122 121 119 115 113 113 112 110 108 107 107 107 106 107 110 115 119 117 110 105 103 104 106 106 108 114 123 127 125 121 119 119 119 117 114 112 113 119 122 121 118 113 114 113 119 129 126 121 123 124
158 156 155 156 158 159 158 160 160 158 157 156 155 154 152 150 148 145 143 142 140 140 139 139 139 136 135 134 134 133 132 132 131 129 125 125 124 121 118 115 114 112 111 111 110 110 108 108 109 112 116 120 119 111 104 103 106 107 106 108 113 121 128 130 127 125 124 122 119 115 112 111 116 121 125 125 118 111 105 109 116 116 116 118 117
159 158 157 158 160 160 160 162 162 160 160 159 158 156 155 153 150 147 146 146 144 143 142 143 141 138 138 139 139 137 135 135 134 131 127 127 126 123 119 115 114 113 114 114 113 113 112 110 111 113 116 120 121 117 108 107 109 109 109 110 112 119 128 131 131 131 129 127 124 120 115 115 116 117 120 123 126 127 123 116 116 122 121 117 117
161 161 159 161 162 161 162 163 164 164 163 162 161 160 158 156 153 152 151 151 148 145 145 146 143 141 141 140 140 138 138 138 137 135 131 130 128 125 120 116 116 114 114 115 114 113 112 112 113 115 116 118 121 121 115 113 113 112 113 113 112 118 128 132 135 135 135 133 130 123 118 118 118 117 116 118 123 127 130 129 130 136 132 129 128
163 164 162 163 165 164 165 165 167 166 166 165 164 163 161 160 158 157 157 156 153 148 147 149 147 145 142 140 140 139 140 140 141 140 137 136 132 128 123 120 116 113 113 111 111 112 114 116 116 116 116 116 117 120 118 118 117 115 116 117 115 118 126 132 137 140 140 139 135 128 122 122 120 119 119 119 121 125 131 134 137 140 140 141 138
165 166 165 166 167 167 168 169 170 169 170 168 166 165 164 164 162 163 163 162 158 153 152 153 153 149 146 143 141 141 141 143 146 144 143 141 137 131 127 124 120 116 113 109 110 111 113 114 116 118 119 118 116 119 120 117 113 115 121 123 122 121 124 130 137 142 145 144 142 135 127 126 124 122 121 119 120 123 128 134 139 142 145 146 144
167 169 168 169 171 171 172 172 173 173 173 170 169 168 167 169 167 168 168 167 164 160 158 158 158 155 151 149 147 147 145 146 147 147 152 149 142 135 131 129 122 117 112 111 112 111 113 115 116 118 121 123 122 124 128 123 111 112 122 129 131 130 127 128 135 143 150 151 150 144 135 132 132 129 126 122 120 122 125 130 137 141 145 149 147
169 172 171 172 174 175 175 175 176 177 175 172 172 170 170 173 172 173 173 171 169 168 167 164 163 161 160 158 156 152 148 149 147 149 158 154 147 142 139 134 127 123 120 116 115 116 116 117 118 117 121 127 131 131 135 134 121 119 129 138 143 141 136 133 136 145 153 156 157 152 143 139 140 137 132 128 125 123 123 126 131 134 141 148 148
171 175 174 175 177 178 179 179 180 180 178 176 175 174 174 178 178 178 178 175 173 176 176 170 168 165 165 162 158 154 149 147 143 146 154 155 152 149 146 142 137 132 131 127 124 122 118 119 120 116 120 128 135 137 138 136 136 143 147 150 152 151 148 143 140 148 155 159 161 158 151 147 147 146 140 134 130 127 125 125 126 128 133 142 149
174 175 175 177 180 181 182 182 183 182 180 179 178 178 179 182 183 183 183 178 178 184 181 175 171 166 165 163 158 154 149 143 138 144 153 157 155 155 157 155 153 147 146 142 133 129 125 126 125 121 124 132 142 148 149 146 149 161 174 175 168 163 160 153 145 150 160 162 164 162 158 155 153 152 147 140 134 130 127 124 122 123 126 132 147
174 175 176 179 183 184 184 184 185 185 183 182 181 182 184 185 186 188 186 182 182 186 184 180 174 171 171 166 161 156 154 150 146 151 158 161 162 165 169 167 166 162 159 152 139 133 130 132 135 135 134 139 150 159 171 179 176 183 198 196 187 184 175 167 156 159 173 172 169 170 167 164 160 157 154 147 140 136 130 124 121 119 121 123 134
175 177 178 181 185 186 187 187 187 187 185 185 183 184 187 188 190 190 188 186 186 186 185 183 180 180 181 173 169 165 166 167 160 158 159 161 165 168 173 173 173 170 165 157 149 141 133 136 141 145 144 146 154 166 182 199 206 212 221 215 201 198 194 188 177 174 185 189 183 178 176 172 168 163 160 157 149 142 135 126 122 119 122 122 123
177 180 181 183 186 187 189 189 189 190 188 187 187 188 190 191 193 192 190 189 188 187 186 186 186 188 187 182 178 175 179 178 170 167 164 163 163 166 170 175 177 176 173 166 162 157 146 143 146 155 156 154 157 163 178 198 211 218 229 233 224 213 210 208 196 187 193 199 193 187 186 180 173 169 167 168 159 151 144 133 128 125 124 125 124
178 181 183 185 187 189 190 191 192 192 191 190 190 191 193 193 194 193 191 191 190 188 187 187 190 192 190 188 187 186 187 184 177 173 175 178 171 169 172 178 182 184 188 180 176 176 168 159 160 168 167 163 161 163 174 191 206 218 241 258 247 233 228 227 218 201 202 204 194 191 193 187 179 173 173 176 168 160 157 145 141 137 132 129 129
180 182 184 186 189 191 191 193 194 194 193 193 193 195 195 195 195 195 192 193 194 190 188 190 192 193 194 194 194 193 194 189 182 179 183 189 185 181 180 182 188 194 199 192 187 188 189 189 187 186 187 177 167 169 183 200 213 240 297 286 251 235 231 233 232 217 211 210 199 192 196 193 187 180 177 181 176 170 168 163 159 152 147 138 137
183 183 185 188 190 192 193 195 196 196 196 195 196 197 197 196 195 195 194 194 195 193 191 194 194 194 197 198 198 198 198 193 187 186 187 194 195 188 183 182 189 200 206 202 195 198 200 201 202 198 203 198 184 184 199 218 229 275 319 293 237 226 225 231 237 229 220 218 205 193 195 197 193 187 184 186 185 177 173 176 177 170 164 155 150
184 185 187 189 191 192 195 196 197 198 198 198 199 200 199 197 196 196 196 195 195 195 195 197 197 197 199 202 202 201 201 198 195 197 196 199 202 191 183 179 179 186 193 195 192 201 205 204 208 203 207 211 207 212 219 226 235 274 308 263 220 218 218 226 235 233 226 224 213 198 194 197 197 195 190 192 193 183 179 186 187 181 179 176 171
186 187 188 190 191 193 196 197 198 198 199 201 201 202 201 198 198 198 198 197 197 199 200 201 200 200 202 204 205 202 202 204 204 206 205 205 206 197 190 183 176 172 177 183 185 197 204 207 213 211 211 213 215 230 234 228 227 249 295 254 254 230 216 220 230 232 227 223 217 207 200 196 197 202 198 195 196 189 189 196 193 187 189 192 189
189 189 188 190 192 194 196 197 198 199 201 202 203 204 203 201 200 200 200 199 200 205 205 204 204 205 205 205 205 203 204 208 209 208 208 210 209 202 195 188 181 181 183 183 182 187 197 206 213 218 218 217 217 223 221 218 225 251 280 258 258 234 218 218 226 229 223 218 213 210 209 202 196 201 202 198 199 196 197 202 198 194 195 201 203
189 189 190 191 193 194 196 197 198 201 203 203 205 205 204 203 203 203 202 201 204 207 206 206 208 210 209 206 206 205 205 208 211 210 210 211 210 205 197 187 181 178 181 181 181 183 190 197 204 212 209 194 197 200 196 201 218 284 270 261 252 231 217 214 223 226 217 212 210 209 212 208 200 200 201 201 203 201 202 205 201 201 203 206 210
189 189 192 193 193 194 195 197 199 202 203 204 205 206 206 206 206 206 204 204 206 207 207 209 212 214 212 209 207 207 204 205 210 210 211 211 208 207 197 184 178 172 172 177 181 186 189 190 198 209 203 182 188 182 173 166 152 130 126 238 235 227 212 209 221 224 213 208 209 212 214 210 205 204 205 206 207 206 206 208 206 209 213 215 218
191 191 192 192 193 195 196 197 199 202 203 205 206 207 208 208 209 208 206 206 208 208 209 212 217 218 216 212 208 205 202 202 207 210 212 211 207 207 199 188 184 180 182 186 189 192 194 194 200 207 204 196 186 175 163 150 151 150 131 189 200 191 190 204 219 222 210 206 208 213 217 214 210 209 211 212 212 212 212 212 211 216 220 225 229
193 192 192 193 193 195 196 197 199 202 203 204 206 209 210 211 211 209 208 209 210 211 212 215 221 222 219 215 208 205 202 202 207 210 212 211 208 208 205 198 194 191 196 202 200 198 201 203 201 203 211 204 187 189 183 160 165 190 238 211 195 173 177 197 215 221 210 203 204 206 211 212 210 211 215 216 216 217 219 218 214 218 227 231 234
194 194 194 194 194 195 197 198 200 201 203 204 206 209 211 212 213 211 210 212 213 215 216 219 223 224 222 216 209 206 205 204 207 211 212 211 211 212 211 209 206 200 203 209 205 202 205 210 209 215 221 207 205 238 200 168 165 189 218 198 184 172 181 199 210 215 209 203 203 202 203 205 207 208 210 213 218 222 226 224 218 219 228 232 234
193 195 195 195 195 196 197 198 199 200 202 203 205 208 210 212 213 212 213 216 218 218 219 222 223 224 222 216 212 209 209 208 209 211 211 211 212 213 214 215 215 210 209 210 208 211 211 210 214 221 221 212 238 298 188 162 146 161 168 164 172 177 184 198 206 205 203 205 207 206 203 202 207 211 208 210 216 223 228 227 222 222 231 236 236
193 194 195 195 195 196 196 197 199 200 200 201 203 205 208 210 211 212 215 220 222 221 221 223 222 222 221 217 215 214 214 212 213 214 212 212 214 215 216 218 220 218 216 218 216 220 216 209 210 210 213 216 222 340 171 166 152 155 162 163 172 182 187 195 201 199 200 205 210 210 207 208 212 214 211 213 216 220 225 229 229 229 235 239 238
192 193 193 195 196 196 196 197 198 199 197 198 200 202 204 205 207 209 213 218 221 220 221 220 219 220 220 219 218 218 217 216 217 217 214 215 217 218 219 220 223 223 225 228 225 226 215 208 207 202 207 211 212 279 142 156 151 143 153 169 177 186 193 201 203 203 203 203 208 213 214 217 218 215 213 216 217 220 224 230 238 240 242 243 243
191 192 193 195 196 196 197 198 197 197 198 199 199 201 204 204 204 206 210 215 218 218 218 216 216 219 221 220 219 219 219 219 221 220 217 218 219 220 221 222 225 224 227 230 226 226 216 208 207 203 201 193 200 219 156 150 147 148 150 151 164 193 205 212 212 213 212 208 213 218 221 224 221 214 213 216 216 218 227 235 241 245 245 245 246
191 192 194 194 195 195 197 198 197 198 199 200 200 201 204 205 206 207 209 212 216 216 217 216 216 220 222 221 220 220 219 220 222 223 220 220 222 222 221 222 225 225 224 224 224 225 219 211 208 207 198 184 189 200 182 166 149 148 145 137 156 187 227 237 229 225 221 217 221 223 224 226 225 219 214 216 213 213 224 235 239 242 244 246 247
192 192 193 193 194 195 196 197 198 199 200 201 202 202 203 206 208 209 210 211 213 214 215 218 219 221 223 223 222 221 220 220 221 223 223 222 224 224 222 222 223 225 225 223 224 224 218 210 207 209 200 188 187 189 192 198 176 156 141 97 109 129 256 251 233 232 231 226 226 226 227 228 227 223 216 210 207 213 226 232 239 243 244 249 251
192 193 193 193 194 196 196 197 198 199 200 201 202 201 201 203 205 206 207 209 211 210 211 214 217 220 222 223 222 222 222 220 220 221 223 225 225 224 223 222 221 223 225 225 227 227 220 211 208 209 202 195 194 188 193 212 213 190 173 134 110 160 235 205 198 231 236 229 228 227 227 230 230 227 220 212 207 214 230 236 237 239 240 244 248
194 194 194 195 196 196 197 197 198 200 200 201 201 200 200 199 199 197 197 201 205 207 209 212 215 217 220 222 223 224 224 222 221 220 222 225 226 224 223 222 222 223 226 228 229 229 224 218 213 210 206 202 203 199 200 208 208 199 188 174 173 215 193 159 141 212 234 231 234 232 230 231 231 231 225 221 219 218 230 239 236 234 234 234 235
195 194 195 196 196 197 196 197 199 200 200 200 200 199 199 199 199 198 199 199 202 208 212 214 217 218 220 222 224 224 225 224 223 221 222 224 226 225 224 224 224 224 228 230 230 229 227 224 221 216 211 209 211 213 213 209 198 199 205 205 220 226 182 170 160 154 187 237 239 233 232 231 230 232 230 228 228 228 232 237 238 238 232 226 226
193 193 194 196 197 196 196 197 199 200 201 200 199 199 200 200 200 201 202 203 205 209 212 213 217 219 220 222 224 224 225 225 225 224 222 224 226 227 226 226 226 226 229 231 231 230 229 226 223 221 218 214 216 219 224 223 211 210 218 220 239 253 195 189 183 168 143 199 243 234 232 232 231 231 230 231 230 231 234 235 237 240 235 229 229
191 192 194 195 196 196 196 197 198 200 200 200 199 200 201 202 202 202 203 206 208 210 210 211 214 217 218 221 222 223 224 225 226 225 224 224 226 227 227 226 227 227 228 232 233 232 231 229 225 224 221 218 218 222 229 234 228 222 221 221 230 236 212 212 201 183 160 156 205 228 220 225 235 233 230 230 230 230 232 233 236 240 239 238 238
192 193 194 194 195 195 195 196 198 199 199 199 199 200 201 202 203 203 204 206 208 209 209 210 211 214 217 219 220 221 223 224 224 224 224 223 225 228 228 227 227 228 229 232 234 234 234 233 230 226 224 221 221 223 229 236 238 235 227 220 224 226 213 213 207 196 181 172 187 213 206 206 223 231 229 229 230 229 230 231 234 239 241 240 240
193 193 193 193 193 194 194 195 198 199 199 199 199 200 201 203 204 206 206 207 206 206 206 207 209 212 215 217 219 220 221 223 223 223 223 223 225 228 230 229 228 230 232 234 235 235 236 236 235 232 229 227 225 226 230 235 240 239 233 228 231 235 227 219 213 203 193 187 183 197 209 208 217 229 230 231 231 230 231 232 232 236 241 241 239
Height
805 806 808 808 810 810 812 812 813 813 813 814 814 815 815 816 817 817 818 819 820 821 821 822 823 823 824 824 825 825 826 826 827 827 827 828 827 828 828 829 829 829 830 830 830 830 830 830 830 830 830 831 831 831 831 831 831 832 832 832 832 833 833 833 833 834 834 834 835 834 834 834 835 835 835 835 835 835 835 836 836 837 838 838 839
804 806 808 809 811 811 812 812 814 814 815 816 816 817 816 817 817 818 819 821 821 822 823 823 824 824 825 825 826 826 827 827 828 828 828 829 829 829 829 830 830 831 831 831 831 831 831 831 831 831 832 832 832 832 832 833 833 833 833 833 834 834 834 835 835 835 836 836 836 836 835 836 836 836 836 836 836 837 837 837 837 838 839 840 840
803 806 807 809 811 811 812 813 814 815 816 817 817 818 818 819 819 820 821 822 822 823 824 824 825 826 826 827 827 828 828 828 829 829 829 829 830 830 831 831 832 832 832 832 832 832 832 832 833 833 833 833 833 833 833 834 834 834 834 835 835 836 836 836 836 836 837 836 836 837 837 837 837 838 838 837 838 838 838 839 839 839 840 841 842
804 806 808 810 811 812 813 814 815 815 817 817 818 819 820 820 821 822 822 823 823 824 825 825 826 827 828 828 828 829 829 829 830 830 830 831 831 832 832 833 833 833 833 833 833 833 834 833 834 834 834 834 834 834 835 835 835 835 835 836 836 837 837 837 837 837 837 837 837 837 838 838 839 839 839 839 840 840 840 840 841 841 842 843 843
804 806 808 810 812 813 814 815 816 816 817 818 819 820 821 822 822 823 824 824 825 826 826 827 828 828 829 829 830 830 830 831 831 831 831 832 832 833 833 833 833 834 834 834 834 834 834 834 834 835 835 835 835 835 836 835 836 836 836 837 837 838 838 838 838 838 839 838 839 839 839 840 840 840 841 841 841 841 841 842 842 843 843 844 844
805 807 808 810 813 814 815 816 817 818 819 820 821 821 822 823 824 825 825 826 826 827 828 828 829 830 830 830 831 831 832 832 832 832 832 833 833 834 834 834 834 834 835 835 835 835 835 835 835 836 836 836 836 837 837 837 837 837 837 838 838 839 839 839 840 840 840 840 840 840 841 842 841 841 842 842 843 843 843 843 843 844 844 845 846
806 807 809 811 813 814 816 817 818 819 820 821 822 823 823 824 825 826 826 827 828 828 829 830 830 831 831 832 832 832 833 833 833 833 834 834 834 835 835 835 835 835 835 836 836 836 836 836 837 837 837 837 837 838 838 838 838 838 839 839 840 840 840 841 841 841 842 842 842 842 842 843 843 842 843 843 844 844 844 844 844 845 846 847 847
807 808 810 812 814 815 817 818 819 820 821 822 823 824 825 825 826 827 827 828 829 830 830 831 831 832 832 833 833 833 834 834 835 835 835 835 835 835 836 836 836 836 837 837 837 837 837 837 838 838 838 838 839 839 839 839 839 839 840 840 841 841 842 842 843 843 843 843 843 844 844 844 845 844 844 844 845 845 845 845 846 847 847 848 849
808 809 811 813 814 816 818 819 820 821 822 823 824 825 826 826 827 828 829 829 830 831 831 832 832 833 833 834 834 835 835 835 836 836 836 836 836 836 837 837 837 838 838 838 838 838 838 838 838 839 839 839 840 840 840 841 841 841 841 841 842 842 843 843 844 844 844 845 845 845 845 846 846 845 845 845 845 846 846 846 847 848 849 850 850
808 810 812 813 815 817 818 820 821 822 823 824 826 826 827 828 828 829 830 830 831 832 832 833 833 834 835 835 835 836 836 837 837 837 837 837 838 837 838 838 838 838 839 839 839 839 839 839 840 840 840 840 841 841 841 842 842 842 842 843 843 843 844 844 845 845 846 846 846 847 847 847 847 846 846 846 846 846 847 848 848 849 850 851 852
809 811 812 814 816 818 819 821 822 823 824 825 826 827 828 829 829 830 831 832 832 833 834 834 835 835 836 836 837 837 838 838 838 838 838 839 839 839 839 839 839 839 839 840 840 840 840 840 841 841 841 841 842 842 842 842 843 843 844 844 844 845 845 846 846 846 847 847 847 848 848 848 847 847 847 847 847 847 848 849 850 850 851 852 853
810 812 813 815 817 819 820 821 823 824 825 826 827 828 829 830 830 831 832 833 833 834 835 835 836 836 837 837 838 838 839 839 839 839 840 840 840 840 840 840 840 840 841 841 841 841 841 842 842 842 842 843 843 843 843 843 844 844 845 845 845 846 846 847 847 847 848 848 849 849 849 849 848 847 848 849 849 849 849 850 851 851 852 852 853
810 812 814 816 818 820 821 822 824 825 826 827 828 829 830 831 832 832 833 834 834 835 836 837 837 837 838 838 839 839 840 840 840 840 841 841 841 841 841 841 841 842 842 842 842 842 842 843 843 843 843 844 844 844 844 844 845 845 845 846 846 847 847 848 849 849 849 849 850 850 850 850 849 848 848 849 850 851 851 851 852 852 852 853 853
811 813 815 817 818 821 821 823 824 825 827 828 829 830 831 832 832 833 834 835 836 836 837 838 838 838 839 839 840 840 840 841 841 841 842 842 842 843 842 843 843 843 843 843 843 843 844 844 844 844 844 845 845 845 845 845 845 846 846 847 847 848 848 849 849 850 850 851 851 852 852 852 852 850 848 849 850 852 852 853 854 854 854 854 855
811 813 815 817 819 821 822 824 825 826 827 828 830 830 832 832 833 834 835 836 837 837 838 838 839 839 840 840 841 841 841 841 842 842 843 843 843 844 844 844 844 844 844 844 845 845 845 845 845 845 846 846 846 846 846 846 846 847 847 847 848 848 849 849 850 851 851 852 852 853 853 854 854 853 852 850 850 850 852 854 855 856 856 856 856
813 814 816 817 819 821 823 825 826 827 828 829 830 831 833 833 834 835 836 837 837 838 839 839 840 840 841 841 842 842 842 842 843 843 844 844 845 845 845 845 845 846 846 846 846 846 846 846 847 846 847 847 847 847 847 847 848 848 848 848 849 849 850 850 851 852 852 853 853 854 854 855 855 856 855 854 853 851 852 853 855 855 856 856 856
814 815 816 818 820 821 823 825 826 828 829 830 831 832 833 834 835 836 837 838 838 839 839 840 841 841 842 842 843 843 843 844 844 844 845 845 846 846 846 846 846 847 847 847 847 847 847 847 847 848 848 848 848 848 848 848 848 849 849 849 850 850 851 851 852 852 853 854 854 855 855 856 857 857 857 857 856 855 855 855 855 855 855 856 857
814 816 817 819 820 822 824 825 827 828 829 830 832 833 834 835 836 837 838 838 839 840 840 841 842 842 843 843 843 844 844 845 845 846 846 847 847 847 847 847 847 848 848 847 848 848 848 848 848 848 849 849 849 849 849 849 849 850 850 850 851 851 851 852 852 853 854 854 855 856 856 857 857 858 858 858 858 858 857 858 858 858 858 859 860
815 817 817 819 820 823 824 825 827 828 830 831 832 833 835 836 837 838 838 839 840 840 841 842 843 843 843 844 844 845 845 846 846 847 847 848 848 848 849 849 849 849 849 848 849 849 849 849 849 849 850 850 850 850 850 850 850 851 851 851 852 852 852 853 853 854 854 855 856 856 857 858 858 858 859 859 859 859 859 859 860 860 861 861 862
816 817 818 820 821 823 824 826 827 828 830 831 832 834 835 836 837 839 839 840 841 841 842 843 844 844 844 845 845 846 846 847 847 848 848 849 849 849 849 850 850 850 850 850 850 850 850 850 850 850 850 851 851 850 850 851 851 851 852 852 853 853 853 853 854 854 855 855 856 857 857 858 859 859 859 860 860 860 860 860 861 861 861 862 862
816 817 818 820 821 823 824 826 827 829 830 831 833 834 835 837 838 839 840 841 842 843 843 844 844 845 845 845 846 847 847 848 848 848 849 849 849 850 850 850 851 851 851 851 851 851 851 851 851 851 851 851 851 851 851 851 852 852 853 853 853 853 854 854 854 855 855 856 857 857 858 858 859 860 860 861 861 861 861 861 862 862 862 862 863
816 817 819 820 821 823 824 826 827 829 830 831 833 834 836 837 838 839 840 842 842 843 844 844 845 845 846 846 847 847 848 848 849 849 849 849 850 850 851 851 852 852 852 852 852 852 852 852 852 852 852 852 852 852 852 852 853 853 853 854 854 854 854 855 855 856 856 857 857 858 858 859 860 860 861 861 862 862 862 862 862 862 863 863 863
814 816 818 819 821 823 824 826 827 829 830 832 833 834 836 837 838 840 841 842 843 843 844 845 845 846 846 847 848 848 849 849 849 850 850 850 851 851 852 852 852 853 853 853 853 853 853 853 853 853 853 853 853 853 853 853 853 854 854 854 854 855 855 856 856 857 857 857 858 858 859 860 860 861 862 862 862 863 863 863 863 864 864 864 864
813 815 817 819 821 822 824 825 827 829 830 832 833 834 836 837 838 840 841 842 843 843 844 845 846 846 847 847 848 848 849 850 850 850 850 851 851 852 852 853 853 853 853 853 853 853 853 854 854 854 854 854 854 854 854 854 854 854 855 855 855 856 856 856 857 857 858 858 859 859 860 860 861 861 862 863 863 864 864 864 864 864 865 865 865
813 815 817 818 820 822 823 825 827 828 830 831 833 834 835 837 838 840 841 842 843 843 844 845 846 847 847 848 848 849 850 850 850 851 851 851 851 852 852 853 853 853 854 853 853 854 854 854 854 854 854 855 855 855 855 855 855 855 855 855 856 856 857 857 857 858 858 859 859 860 860 861 861 862 863 863 864 864 865 865 865 865 866 866 866
813 815 816 818 819 821 823 825 827 828 830 831 832 834 835 837 838 839 841 841 842 843 844 845 846 847 847 848 848 849 850 850 851 851 852 852 852 852 853 853 854 854 854 854 854 854 854 854 854 855 855 855 855 855 855 855 856 856 856 856 856 857 857 857 858 858 859 859 860 860 861 861 862 863 863 864 864 865 865 866 866 866 866 867 867
812 814 815 818 819 821 823 824 826 827 829 831 833 834 835 837 838 839 840 841 842 843 844 845 846 847 848 848 849 849 850 851 851 852 852 852 853 853 853 854 854 854 854 855 855 854 855 855 855 855 855 855 855 856 856 856 856 857 857 857 857 857 857 857 858 858 859 859 860 860 861 861 862 863 864 864 865 865 866 866 867 867 867 867 867
811 813 815 817 818 820 822 823 825 827 829 831 832 833 835 836 838 839 840 841 842 843 844 845 846 847 848 849 849 850 850 851 851 852 852 853 853 853 853 854 854 855 855 855 855 855 855 855 855 855 855 855 855 856 856 856 857 857 857 857 857 857 857 857 857 858 859 859 860 861 861 862 862 863 864 864 865 866 866 867 867 867 868 868 868
809 811 814 816 817 819 821 823 824 826 828 830 832 833 834 836 837 839 840 841 842 842 844 845 846 847 848 849 849 850 850 851 851 852 852 853 853 854 854 854 854 855 855 855 855 855 855 855 855 855 855 856 856 856 856 856 857 857 857 857 857 857 857 857 857 858 859 859 860 861 862 862 862 863 864 865 865 866 866 867 867 868 868 868 869
808 810 812 814 816 819 820 822 823 825 827 829 831 832 834 835 837 838 839 840 841 842 844 845 846 847 848 848 849 850 850 851 851 851 852 853 853 854 854 854 854 855 855 855 855 855 855 856 856 855 855 855 856 856 857 857 857 857 857 856 856 856 857 857 857 858 859 859 860 861 862 862 863 863 864 865 865 866 867 867 868 868 868 869 869
807 809 811 813 815 817 819 821 823 825 826 828 830 831 833 834 836 837 839 840 841 842 843 845 846 847 847 848 849 849 850 850 851 852 852 853 853 853 854 854 855 855 855 855 855 856 855 856 856 856 856 856 856 856 857 857 857 857 857 856 856 856 857 857 857 858 859 859 860 861 862 863 863 864 864 865 865 866 867 867 868 868 869 869 869
805 807 809 812 814 816 818 820 822 824 825 827 829 831 832 834 835 837 838 839 841 842 843 844 845 846 847 848 848 849 850 850 851 852 852 852 853 853 854 854 855 855 856 856 856 856 856 856 856 856 856 856 857 857 857 857 858 858 857 857 856 856 857 857 857 858 859 859 860 861 862 863 863 864 864 865 866 866 867 867 868 868 869 869 869
803 805 808 810 813 814 817 819 821 823 824 826 828 830 832 833 835 836 837 839 840 841 842 843 844 846 846 847 848 848 849 850 851 852 852 852 853 854 854 854 855 855 856 856 856 856 856 856 856 856 856 857 857 857 857 857 858 858 857 857 857 857 857 857 858 858 859 860 860 861 862 863 863 864 864 865 866 866 867 867 868 868 869 869 870
802 805 807 808 811 813 816 818 820 821 823 825 827 829 831 832 834 835 837 838 839 841 841 843 844 845 846 847 847 848 849 850 851 851 852 852 853 853 854 854 855 855 856 856 856 856 856 856 856 856 857 857 857 857 858 858 858 858 858 857 857 857 857 858 858 858 859 860 860 861 861 862 863 864 864 865 865 866 867 867 868 868 869 869 870
801 803 805 807 810 812 814 816 818 820 822 824 825 827 830 831 833 835 836 838 839 840 841 842 843 844 845 846 847 848 848 849 850 851 852 852 853 853 854 854 855 855 856 856 856 856 856 856 856 856 857 857 858 858 858 858 858 858 858 857 857 857 858 858 858 859 860 860 861 861 862 862 863 864 864 865 865 866 866 867 868 868 869 870 870
798 801 803 806 808 810 813 815 816 819 820 822 824 826 829 830 832 834 836 837 838 839 840 841 842 843 844 845 847 847 848 849 850 851 851 852 852 853 854 854 855 855 856 856 856 856 856 857 856 857 857 858 858 858 859 859 859 859 858 858 857 858 858 858 858 859 860 861 861 862 862 863 863 863 864 864 865 866 866 867 868 868 869 869 870
796 799 801 804 806 808 811 813 815 817 819 821 823 825 828 829 831 833 835 836 837 838 839 840 841 842 844 845 846 847 848 848 849 850 851 851 852 853 853 854 855 855 856 856 856 856 856 857 857 857 857 858 858 859 859 859 859 859 858 858 858 859 859 859 859 860 861 861 862 862 862 863 863 863 864 864 865 866 866 867 868 868 869 869 870
795 797 799 802 804 807 809 811 814 816 818 820 823 825 827 829 831 833 834 835 836 837 838 840 840 841 842 844 845 846 847 848 849 850 850 851 852 852 853 854 854 855 855 856 856 856 856 857 857 857 857 858 858 859 859 859 859 859 858 858 859 859 859 860 860 861 862 862 862 863 863 863 863 863 863 864 865 866 866 867 868 868 868 869 869
794 796 798 801 803 806 808 810 813 815 817 820 822 824 826 828 830 832 834 834 835 836 837 838 839 840 841 843 844 845 846 847 848 849 850 851 851 852 853 854 854 855 855 856 856 856 856 856 856 857 857 858 859 859 859 859 859 859 859 859 860 860 860 861 862 862 863 863 863 863 863 863 863 863 864 864 865 866 866 867 867 868 868 868 869
792 794 797 799 802 804 807 809 811 813 816 819 821 823 825 827 829 830 832 832 833 835 836 837 838 839 840 842 843 844 845 846 847 848 849 850 851 852 853 853 854 854 855 855 856 856 856 856 857 857 857 858 859 859 859 859 859 860 860 860 861 862 862 862 863 863 864 864 864 864 864 864 864 864 864 864 865 866 866 867 867 867 868 868 868
789 792 794 796 798 801 804 806 809 811 814 816 818 820 822 824 825 827 828 830 831 833 834 836 837 838 840 841 842 843 844 845 846 847 848 849 850 852 852 853 854 854 855 855 855 856 856 857 857 857 857 858 858 858 859 859 860 860 861 862 862 863 863 864 864 864 865 865 864 864 864 864 864 865 865 865 865 866 866 866 867 867 867 868 868
786 788 790 792 795 798 801 803 806 809 810 812 815 817 819 821 822 823 826 828 829 831 832 834 836 837 839 840 841 842 843 844 845 846 847 849 850 851 852 852 853 854 854 855 855 856 856 856 857 857 858 858 858 858 859 859 860 861 861 863 864 865 865 865 865 866 866 866 865 865 865 865 865 865 866 866 866 866 866 866 866 867 867 867 867
782 785 787 790 793 795 798 801 804 806 808 810 812 814 817 819 821 822 825 827 828 829 831 833 835 837 838 839 840 841 842 843 844 845 846 848 849 850 851 852 853 853 854 854 855 855 856 856 856 857 857 858 858 858 859 860 861 861 862 865 866 867 867 866 866 866 866 866 866 866 866 866 866 866 866 866 866 866 866 866 866 866 866 867 867
779 781 784 787 789 792 795 797 800 802 805 808 810 812 816 819 821 823 825 827 828 830 831 833 834 835 836 837 838 839 841 842 843 844 845 847 848 849 850 851 852 853 853 854 854 855 855 855 856 857 857 858 858 859 859 859 860 862 863 866 867 869 870 867 865 866 866 866 866 866 867 867 866 867 867 866 866 866 866 866 866 866 866 867 867
774 776 779 782 785 788 791 794 797 800 802 805 808 812 815 818 820 822 825 826 828 829 830 831 832 833 834 835 836 838 839 841 842 843 844 846 847 848 849 850 851 852 852 853 854 854 855 855 856 856 857 857 858 858 859 860 860 861 862 865 868 870 870 867 866 867 866 866 866 867 867 867 867 867 867 867 867 867 866 866 866 866 866 866 867
769 772 775 778 781 785 788 792 795 797 800 803 806 810 812 815 817 819 821 823 825 826 826 827 828 829 831 832 835 836 838 840 841 842 844 844 846 847 848 849 850 851 852 853 853 854 854 855 855 856 856 857 858 858 859 859 860 860 861 862 864 866 865 865 868 868 867 866 866 867 867 868 868 868 868 867 867 867 867 866 866 866 866 866 866
764 768 772 775 779 782 785 789 792 794 798 801 804 807 810 812 814 815 817 818 820 821 823 825 826 827 829 831 833 835 837 839 840 842 843 844 845 846 847 848 849 850 851 852 852 853 854 854 855 855 856 857 857 858 859 859 860 860 861 861 862 862 862 863 866 868 869 868 866 866 867 867 868 868 868 868 867 867 867 866 866 866 866 866 866
760 765 769 772 776 779 783 786 789 792 795 798 801 804 807 809 811 812 814 815 816 818 820 823 825 827 829 830 832 834 835 837 839 840 842 843 844 845 846 847 848 849 850 851 852 852 853 854 854 855 855 856 857 857 858 859 859 860 860 861 861 861 861 862 863 864 867 869 867 867 867 867 868 867 867 867 867 867 867 866 866 866 866 866 866
758 761 764 768 773 776 780 783 786 789 792 795 798 801 804 806 808 810 812 814 815 817 820 822 824 826 828 829 831 833 834 836 838 839 841 842 843 844 845 846 847 848 849 850 851 851 852 853 853 854 855 855 856 857 858 858 859 860 860 861 861 861 861 861 862 862 863 867 868 867 866 867 867 866 866 867 866 867 866 866 866 866 866 866 865
754 758 761 766 770 774 778 781 783 786 789 792 795 798 801 804 806 808 810 812 814 817 820 821 823 825 826 828 829 831 832 834 836 837 839 840 842 843 844 845 846 847 848 849 850 850 851 852 853 854 854 855 856 856 857 858 858 859 860 860 861 861 861 861 861 862 862 864 866 865 865 865 865 865 865 865 865 866 866 866 866 866 865 865 865
752 756 760 762 766 770 774 777 780 783 787 789 792 795 798 801 804 806 808 810 813 815 817 819 821 823 825 826 827 829 830 832 834 835 837 839 840 841 842 843 844 845 847 847 848 849 850 851 852 853 854 855 855 856 857 858 858 858 859 859 860 860 860 860 860 861 861 862 863 864 864 864 864 863 863 864 864 865 865 865 865 865 865 865 865